KDAY Airport Diagram

We have created a template for each of the higher traffic airports in the vZID airspace. They include KCMH, KCRW, KCVG, KDAY, KIND, KLEX and KSDF. You wil find usefull information including the airport diagram, weather, and specific airport procedures.

KDAY Weather

[Source: ADDS]
METAR
KDAY 240056Z 00000KT 10SM SCT250 08/M08 A3027 RMK AO2 SLP260 T00781083 =
KDAY 232332Z 2400/2424 24004KT P6SM SCT250 FM241400 18007KT P6SM OVC060 FM241700 19007KT P6SM VCSH OVC050 FM242200 15006KT 5SM -SHRA BR OVC035
TAF
KDAY 232332Z 2400/2424 24004KT P6SM SCT250 FM241400 18007KT P6SM OVC060 FM241700 19007KT P6SM VCSH OVC050 FM242200 15006KT 5SM -SHRA BR OVC035 =

KDAY Operations

Approach/Departure operations for KDAY were consolidated into the Columbus TRACON quite some time back. We have recently made that change here at ZID. When arriving/departing the Dayton Airport and airports in the surrounding area, contact with the Columbus APP/DEP controller, if online, should be expected.

Calm Wind Configuration is runways 24L/R. This configuration is used up to and including 10kts.

Runway 24L typically departs south and east, except larger aircraft requiring a longer runway.

Runway 24R typically departs north and west.

 

JSN Epic template designed by JoomlaShine.com